Theta_e
299 300 301 302 302 303 303 302 302 302 302 302 302 300 298 296 293 291 291 290 290 290 289 289 289 289 288 288 288 288 287 287 287 287 287 286 286 286 285 285 284 285 285 285 284 284 284 284 284 283 283 283 283 283 283 282 282 281 281 280 280 280 279 278 278 279 279 279 278 278 277 277 277 277 276 275 275 275 275 275 275 277 277 276 276
299 300 301 301 302 303 304 302 300 301 301 300 299 298 295 293 291 291 291 290 290 289 289 289 289 288 288 288 288 287 287 287 286 286 286 286 285 285 285 285 284 285 285 285 284 284 284 283 283 283 283 283 283 282 282 282 281 281 281 280 279 279 279 278 278 277 277 278 278 277 277 276 276 276 275 275 275 275 275 275 275 276 276 276 275
299 300 300 301 301 302 302 300 299 299 299 298 297 296 293 291 290 290 290 290 289 289 289 289 288 288 288 287 287 287 287 286 286 286 285 285 285 285 284 284 284 285 285 285 284 284 284 283 283 283 283 283 282 282 282 282 281 281 280 280 279 279 278 278 277 277 277 277 277 277 276 276 275 275 275 275 275 275 275 275 274 275 275 275 274
299 299 299 299 299 299 298 298 298 298 297 297 296 293 291 290 289 289 290 290 289 288 288 288 288 288 287 287 287 287 286 286 286 285 285 285 285 284 284 284 284 284 284 284 284 284 284 283 283 283 282 282 282 282 282 281 281 280 280 279 279 278 278 278 277 277 276 276 276 276 275 275 275 275 275 275 274 274 274 275 274 274 275 274 274
298 297 297 297 297 296 296 296 297 297 297 296 294 292 289 288 288 288 288 289 288 288 288 288 288 287 287 287 287 287 286 286 285 285 285 284 284 284 284 284 284 284 284 284 284 284 284 283 283 283 282 282 282 282 282 281 281 280 280 279 279 278 278 277 277 276 276 275 275 275 275 275 275 275 275 275 274 274 274 274 274 274 274 274 274
297 296 296 295 295 295 295 295 296 296 296 295 293 290 289 288 288 288 288 288 288 288 288 288 288 287 287 287 286 286 286 286 285 285 284 284 284 284 284 284 284 284 284 284 283 283 283 283 282 282 282 282 282 282 281 281 281 280 280 279 279 278 277 277 276 276 276 275 275 274 274 274 274 275 275 274 274 275 275 275 274 274 274 273 273
296 295 295 294 295 295 295 295 296 296 295 294 291 289 288 288 288 288 288 288 288 288 288 288 287 287 287 286 286 286 286 285 285 285 285 284 284 284 284 284 284 284 283 283 283 283 282 282 282 282 282 282 282 281 281 281 281 280 280 279 278 277 277 277 276 276 275 275 274 274 274 274 274 274 275 274 274 275 275 274 274 274 273 273 273
296 294 294 293 294 294 294 295 295 295 293 291 290 288 288 288 287 288 288 288 288 288 288 288 287 287 286 286 286 286 285 285 285 285 284 284 284 284 283 283 284 284 283 283 283 283 282 282 282 282 282 281 281 281 281 281 281 280 280 279 278 277 277 276 276 276 275 275 274 274 274 274 274 275 275 275 275 275 274 274 273 273 273 272 273
295 293 292 292 292 292 293 294 293 293 291 289 288 288 287 287 287 287 288 288 287 287 287 287 287 286 286 286 286 285 285 285 285 285 285 284 284 284 283 283 284 284 283 283 283 283 282 282 282 282 281 281 281 281 281 280 280 280 279 279 278 277 277 276 276 275 275 274 274 274 274 274 275 275 275 275 275 274 274 273 273 273 272 271 272
294 293 292 291 291 292 293 293 292 292 290 289 288 287 287 287 287 287 287 287 287 287 287 287 287 286 286 286 285 285 285 285 285 285 285 284 284 284 284 284 284 284 284 283 283 283 283 282 282 282 281 281 281 281 281 280 280 280 279 278 278 277 277 276 276 275 275 274 274 274 274 275 275 275 275 274 274 274 273 273 272 272 271 271 272
293 292 292 291 291 292 292 292 292 291 290 289 288 287 287 287 287 287 287 287 287 287 287 287 286 286 286 286 285 285 285 285 285 285 285 285 285 284 284 285 285 284 284 284 284 283 283 283 282 282 282 282 281 281 281 280 280 280 279 278 278 277 277 276 276 275 274 274 274 274 275 275 275 275 274 274 274 273 273 272 272 271 271 271 271
293 292 292 291 292 292 292 292 292 291 290 289 288 287 287 287 287 287 287 287 287 286 287 286 286 286 286 285 285 285 285 285 285 285 285 285 285 284 285 286 286 285 284 284 284 284 283 283 282 282 282 282 282 281 281 280 280 280 279 278 278 277 277 276 276 275 275 274 274 274 275 275 275 275 274 274 273 273 272 272 271 271 271 271 270
292 292 292 291 292 292 293 293 293 292 291 290 288 287 287 287 287 287 287 286 286 286 286 285 285 285 285 285 285 285 285 285 286 286 286 285 285 285 285 287 287 286 285 285 284 284 283 282 282 282 282 282 282 281 281 280 280 279 279 278 277 277 276 276 276 276 275 275 275 275 275 275 275 274 274 274 273 273 272 272 271 271 271 271 270
292 292 291 291 292 293 293 294 294 292 290 289 288 287 287 287 286 286 286 285 285 285 285 285 285 285 285 285 285 285 286 286 286 286 285 285 285 285 286 288 288 287 286 285 285 284 283 282 282 282 282 282 282 282 281 280 280 279 279 278 278 277 276 276 276 276 276 275 275 275 275 275 275 274 274 273 273 272 272 271 271 270 270 270 269
291 292 291 291 291 292 292 292 292 290 289 288 287 287 287 286 286 285 285 285 285 285 285 285 285 285 285 285 285 286 286 286 286 285 285 285 285 286 287 288 288 288 286 285 284 284 283 282 282 281 281 282 283 282 281 281 280 279 279 278 278 277 276 276 276 276 276 276 276 275 275 274 274 274 274 273 273 273 272 271 271 270 269 269 268
291 291 291 291 291 291 291 291 290 289 289 288 288 287 286 286 286 285 285 285 285 285 285 285 285 285 285 285 285 286 286 286 285 285 285 285 285 285 285 287 287 287 286 285 284 283 283 282 282 281 281 281 281 281 281 280 279 278 278 278 278 277 277 277 276 275 275 275 275 275 274 275 275 274 274 274 273 273 272 271 270 270 269 269 268
291 291 291 291 291 291 291 290 290 289 289 288 288 287 287 286 286 286 285 285 285 285 285 285 285 285 285 285 285 285 285 285 285 285 285 284 284 283 284 285 286 286 285 285 284 283 283 283 282 281 280 280 281 280 280 279 279 278 278 278 278 277 277 277 276 275 274 274 275 275 276 276 276 275 275 274 273 272 271 270 270 269 268 268 267
291 291 291 291 291 290 290 290 290 289 289 289 289 288 288 287 287 286 286 286 285 285 285 285 285 285 284 284 284 284 284 284 284 283 283 283 283 283 283 284 284 284 284 283 283 283 283 283 282 281 280 280 280 280 279 279 279 278 278 278 277 277 277 277 275 274 274 274 275 276 276 276 276 275 274 274 273 272 270 270 269 269 268 267 267
290 290 291 291 291 291 291 290 290 290 289 289 289 289 288 288 288 287 287 286 286 285 285 285 285 284 284 284 284 284 284 283 283 283 282 282 282 282 282 283 283 283 283 283 283 283 282 282 282 282 281 280 280 279 279 279 279 279 279 277 276 277 279 278 276 275 274 274 275 276 276 275 275 274 274 273 272 271 270 269 269 268 267 267 267
291 291 291 291 291 291 291 290 290 290 290 290 289 289 289 288 288 287 286 286 286 285 285 285 285 284 284 284 284 284 283 283 283 282 282 282 281 281 282 282 282 282 282 282 282 283 282 282 282 282 281 281 280 280 279 279 279 279 278 277 277 278 279 278 276 275 274 274 275 275 275 275 275 274 274 273 271 270 269 269 268 268 267 267 267
291 291 291 291 291 291 291 291 291 290 290 290 290 289 289 288 288 287 287 286 286 285 285 285 284 284 284 284 284 283 283 283 283 282 282 281 281 281 281 282 282 282 282 282 282 282 282 283 283 283 282 282 281 281 281 279 279 279 278 278 278 279 278 277 276 275 274 274 275 274 275 275 274 274 273 272 271 270 269 269 268 268 267 267 267
291 291 291 291 291 291 290 290 290 290 290 290 289 289 289 288 288 287 287 286 286 285 285 285 284 284 284 284 283 283 283 282 282 282 282 281 281 281 281 281 281 281 281 281 281 282 282 283 283 283 283 282 282 282 281 280 279 278 278 278 277 277 276 276 275 274 274 275 275 274 274 274 274 274 273 272 271 270 269 268 268 268 267 267 267
291 291 291 291 291 291 291 290 290 290 290 290 289 289 288 287 287 287 286 286 286 285 285 284 284 283 283 283 283 283 282 282 282 282 281 281 281 281 280 281 281 281 282 281 281 282 282 282 283 283 282 282 282 281 281 280 279 279 278 278 277 277 276 276 275 275 275 275 275 274 274 274 274 274 273 272 271 270 269 268 268 268 267 267 267
291 290 290 291 290 290 290 290 290 290 290 289 289 288 288 287 287 286 286 286 285 285 284 284 283 283 283 283 283 283 283 282 282 282 281 281 281 280 280 280 281 281 281 281 281 282 282 282 282 282 282 281 281 280 280 280 279 279 279 278 278 278 277 277 277 276 276 275 274 274 274 274 274 274 273 272 271 270 269 269 268 268 268 267 267
290 290 290 290 290 290 290 290 289 289 289 289 288 288 287 287 286 286 286 285 284 284 284 283 283 283 283 283 283 283 283 282 282 282 281 281 281 280 280 280 280 280 281 281 281 282 281 282 282 281 281 281 280 279 279 279 279 279 279 279 279 278 278 278 278 277 276 275 274 273 274 275 274 274 273 272 270 270 269 269 268 268 268 267 267
290 290 290 290 290 290 289 289 289 289 288 288 288 288 288 288 287 286 285 285 284 284 284 283 283 282 282 283 283 283 283 282 283 282 282 281 281 280 280 280 279 279 280 280 281 281 281 281 281 281 281 280 280 279 278 278 278 278 278 279 279 279 278 278 278 277 276 275 274 274 274 275 274 273 273 272 271 270 269 268 268 268 268 267 267
290 290 290 290 289 289 289 289 289 289 288 288 288 288 288 287 287 286 286 285 284 284 283 282 282 282 282 283 283 283 282 282 282 282 282 281 281 281 280 280 279 279 279 279 280 280 280 281 280 280 280 280 279 279 278 278 278 277 277 277 278 278 278 278 278 277 276 275 274 274 274 274 273 273 272 271 271 270 269 268 267 267 267 267 266
290 290 290 290 289 289 290 289 289 289 289 288 288 287 287 287 287 287 287 286 286 285 284 284 284 284 284 284 284 283 282 282 282 282 282 282 281 281 280 280 280 279 279 279 279 279 279 279 279 279 279 279 278 278 277 277 277 277 277 277 277 277 277 277 277 277 276 275 274 274 274 273 273 272 272 271 270 269 268 268 267 267 267 267 266
291 290 290 290 290 290 289 289 289 289 288 288 288 287 287 288 287 287 287 287 287 286 286 285 286 285 285 284 283 282 282 283 283 282 282 281 281 281 281 280 280 280 280 279 279 278 278 277 277 277 278 278 277 277 277 276 276 276 276 276 276 276 276 276 276 276 275 274 273 273 273 273 272 272 271 271 270 269 268 267 267 267 266 266 266
290 290 290 289 289 289 289 288 288 288 288 288 287 287 286 286 286 286 286 286 286 285 285 285 285 284 284 284 283 283 282 282 282 281 280 280 280 280 279 279 279 279 279 278 277 277 276 276 276 276 276 277 277 276 276 276 276 275 275 275 275 275 275 275 275 275 275 274 273 273 273 272 272 271 271 270 269 268 268 267 267 266 266 266 266
290 289 289 289 289 289 288 288 288 287 287 287 287 286 286 285 285 285 285 285 285 284 284 284 284 283 283 283 283 282 281 281 280 280 279 279 278 278 278 278 278 278 278 277 276 275 275 275 275 275 275 276 276 276 276 276 275 274 274 274 275 275 274 275 274 274 274 273 273 273 272 272 271 271 271 270 269 268 267 267 266 266 266 265 265
291 290 289 289 289 288 288 288 287 287 286 286 286 286 285 285 285 284 285 285 284 284 283 283 283 282 282 282 281 281 281 280 279 279 278 278 278 278 278 278 278 278 277 277 277 276 275 275 275 275 275 275 275 276 276 275 275 274 274 274 274 274 274 274 274 274 274 273 273 272 272 271 271 271 270 269 268 267 267 266 266 266 265 265 264
291 290 290 289 289 288 288 288 287 287 287 286 286 285 285 285 285 284 284 283 283 283 282 282 282 281 280 280 280 280 280 280 279 279 278 278 278 278 278 278 278 278 278 278 278 277 276 275 275 275 275 275 275 275 275 275 275 274 274 274 274 274 274 274 274 273 273 272 272 272 271 271 271 271 270 269 267 267 266 266 266 266 265 264 264
290 290 290 289 289 288 288 288 287 287 286 286 286 286 286 286 285 285 283 282 281 281 281 281 281 280 280 280 279 279 279 279 279 279 279 279 278 278 278 278 278 278 278 278 278 278 277 276 275 275 275 275 275 275 275 275 275 274 274 274 273 273 273 273 273 272 272 272 271 271 271 271 271 270 270 268 267 266 266 265 265 265 265 264 264
289 289 289 289 288 288 287 287 287 286 286 286 285 285 285 284 284 284 283 282 282 281 281 280 280 280 279 279 279 279 279 279 279 279 279 279 279 279 278 278 278 278 278 278 278 278 277 277 276 275 275 275 275 275 274 274 274 274 274 274 273 273 273 272 272 272 271 271 271 270 270 270 270 270 269 268 266 266 265 265 266 265 265 265 264
288 287 287 287 287 287 286 286 286 285 285 285 284 284 283 283 283 282 282 282 281 281 280 280 279 279 278 278 278 278 277 277 277 278 278 278 279 279 279 278 278 277 277 277 277 277 277 277 276 276 275 275 275 275 275 274 274 274 274 274 273 273 272 272 272 271 271 270 270 270 270 270 269 269 269 267 266 266 265 265 265 265 265 264 264
286 286 286 286 285 285 285 284 284 284 283 283 283 282 282 282 281 281 280 280 280 279 279 279 279 278 278 277 277 276 276 276 276 276 276 277 278 278 279 279 278 277 277 277 277 277 277 276 276 276 275 275 275 275 275 274 274 274 274 273 273 273 272 272 272 271 271 270 270 270 270 269 269 269 268 267 266 265 265 265 265 264 264 264 263
285 285 285 284 284 284 284 283 283 282 282 282 281 281 281 281 280 280 279 279 278 278 277 277 277 277 277 276 275 275 275 275 274 274 275 275 276 277 278 278 277 277 277 276 276 276 276 276 276 276 275 275 275 275 275 275 274 274 274 273 273 272 272 271 271 271 270 270 270 270 270 269 269 269 268 267 266 265 265 265 264 264 264 263 263
284 283 283 283 283 283 282 282 281 281 281 281 280 280 280 279 279 278 278 277 277 276 276 276 275 275 275 275 274 274 273 273 273 273 273 274 274 275 276 276 276 276 276 276 276 275 275 275 275 275 275 275 275 274 274 274 274 274 273 273 272 272 271 271 271 271 270 270 270 270 270 269 269 268 267 266 266 265 265 264 264 264 263 263 263
283 282 282 282 281 281 281 280 280 280 280 279 279 279 278 278 277 277 276 276 276 275 275 274 274 273 273 272 272 272 271 271 271 272 272 272 273 274 274 274 274 274 274 274 274 274 274 274 274 274 274 273 273 273 273 273 272 272 272 272 271 271 271 270 270 270 270 270 270 269 269 269 268 268 267 266 266 265 264 264 264 264 263 263 264
282 281 281 280 280 280 279 279 279 279 278 278 277 277 276 276 276 275 275 274 274 273 273 272 272 271 271 271 271 270 270 270 270 270 270 270 271 271 272 272 272 272 272 272 272 272 272 272 272 272 272 272 272 271 271 271 271 271 271 270 270 270 270 270 269 269 269 269 269 269 268 268 268 267 266 266 265 265 264 264 264 263 263 263 263
280 280 279 279 278 278 278 278 277 276 276 276 275 275 275 275 274 274 273 273 272 272 271 271 270 270 270 269 269 269 269 269 268 269 269 269 269 269 270 270 270 270 270 271 271 271 271 271 271 270 270 270 270 270 270 270 270 269 269 269 269 269 269 269 268 268 268 268 268 267 267 267 267 266 265 265 264 264 264 263 263 263 262 262 263
279 278 278 278 277 277 277 276 276 275 275 275 275 274 273 273 272 272 272 271 271 270 270 270 270 269 269 268 268 268 268 268 268 268 268 268 268 268 268 268 268 268 269 269 269 269 269 269 269 269 269 269 269 269 269 269 268 268 268 268 267 267 267 267 267 267 267 266 266 266 266 266 265 265 264 264 264 263 263 263 262 262 262 262 262
278 278 277 277 276 276 275 275 275 275 274 274 273 272 272 271 271 271 270 270 270 270 269 269 269 268 268 268 268 268 267 267 267 267 267 267 267 267 267 267 267 267 267 267 267 268 268 268 268 268 268 268 268 268 267 267 267 267 267 266 266 266 266 266 265 265 265 265 265 265 264 264 264 264 263 263 263 263 262 262 262 262 262 262 261
278 277 277 276 275 275 275 274 274 273 273 272 271 271 270 270 270 270 269 269 269 269 268 268 268 267 267 267 267 267 267 267 267 267 267 267 266 266 266 266 266 266 266 266 266 266 266 266 266 267 267 266 266 266 266 266 266 266 266 265 265 265 265 265 265 264 264 264 264 264 263 263 263 263 263 263 263 262 262 262 262 262 261 261 261
276 276 276 275 275 274 273 273 272 271 270 270 270 269 269 269 269 269 269 268 268 268 268 267 267 267 267 266 266 266 266 266 266 266 266 266 266 266 266 266 266 266 266 266 265 265 265 266 266 266 266 265 265 265 265 265 265 265 265 265 265 265 265 264 264 264 264 264 264 263 263 263 262 262 262 262 262 262 262 262 262 261 261 261 261
275 274 274 274 273 273 272 271 270 269 269 269 269 269 269 268 268 268 268 268 267 267 267 267 266 266 266 266 266 266 266 266 266 266 266 266 265 265 265 265 265 265 265 265 265 265 265 265 265 265 265 265 265 265 264 264 264 264 264 264 264 264 264 264 264 264 264 263 263 263 263 262 262 262 262 262 262 261 261 261 261 261 261 261 261
273 273 273 272 272 271 270 269 269 269 269 269 268 268 268 268 268 267 267 267 267 266 266 266 266 266 266 266 266 266 265 265 265 265 265 265 265 265 265 265 265 265 264 264 264 264 264 264 264 264 264 264 264 264 264 264 264 264 264 264 264 264 264 264 264 263 263 263 263 263 262 262 262 262 262 262 261 261 261 261 261 261 260 260 260
272 272 271 270 270 269 269 268 268 268 268 268 268 268 267 267 267 266 266 266 266 266 265 265 265 265 265 265 265 265 265 265 264 264 264 264 264 264 264 264 264 264 264 264 264 264 263 263 263 264 264 264 264 264 264 264 264 264 264 263 263 263 263 263 263 263 263 263 263 263 262 262 262 262 262 261 261 260 260 260 260 260 260 259 260
270 270 269 269 268 268 268 268 268 268 268 267 267 267 266 266 266 266 266 265 265 265 265 265 265 265 265 264 264 264 264 264 264 264 264 263 263 263 263 264 263 264 264 264 264 264 263 263 263 263 263 263 263 263 263 263 263 263 263 263 263 263 263 263 262 262 262 262 262 262 262 262 262 262 262 261 260 260 260 260 259 259 259 259 259
269 268 268 268 268 268 267 267 267 268 267 267 267 266 266 266 266 265 265 265 265 264 264 264 264 264 264 264 264 264 264 264 264 263 263 263 263 263 263 263 263 263 263 263 263 263 263 263 263 263 263 263 263 263 263 263 263 262 262 262 262 262 262 262 262 262 262 262 262 262 262 262 261 261 261 261 260 260 259 259 259 258 258 258 258
Wind_Speed
34 35 35 36 36 36 36 35 33 31 29 28 28 31 35 38 40 41 41 40 39 38 37 36 35 34 33 32 31 30 29 27 26 24 23 23 22 21 20 20 19 16 14 13 12 11 10 9 9 9 8 7 7 7 7 7 6 6 6 6 6 6 6 6 7 8 12 13 14 16 16 18 19 19 20 21 20 21 21 18 17 18 19 21 23
34 35 35 36 37 37 36 34 32 31 29 29 29 32 36 39 41 41 41 40 39 38 37 36 35 34 33 32 31 30 28 27 25 25 24 23 23 22 22 21 19 16 15 13 13 13 11 11 10 10 9 9 9 8 8 8 7 7 7 7 7 7 7 7 7 8 11 14 14 15 16 18 19 19 19 20 20 21 20 17 17 18 19 21 23
34 35 35 36 36 36 36 34 32 30 30 29 30 33 37 40 41 42 41 41 39 38 37 36 35 34 33 32 30 29 28 27 26 25 25 24 23 23 22 20 18 16 15 14 14 13 13 12 12 11 11 10 10 10 10 10 9 8 8 8 8 9 8 8 9 9 12 13 13 14 16 18 19 19 19 20 20 21 19 16 16 17 19 22 23
34 34 34 34 35 35 34 33 32 31 30 30 31 34 38 40 41 41 41 40 39 38 37 36 35 34 33 32 31 30 29 28 27 25 24 23 23 22 21 20 18 16 15 14 13 13 13 13 13 13 12 12 12 12 12 11 10 9 9 10 10 10 10 10 10 11 12 13 14 15 17 17 19 19 20 20 20 19 17 16 16 15 17 22 24
33 33 34 34 34 34 33 33 32 31 31 31 33 35 38 39 39 39 39 39 38 38 37 36 35 34 33 32 31 31 29 28 27 26 25 24 22 21 20 19 18 16 15 14 13 13 14 14 14 14 13 14 13 13 13 12 11 11 11 11 11 11 11 11 11 12 13 14 16 16 16 17 19 19 19 18 18 16 14 14 14 13 16 23 26
33 33 33 34 34 34 34 33 33 32 32 32 34 36 38 39 39 38 37 38 38 37 37 36 35 34 33 32 31 30 29 28 27 26 26 24 23 22 21 19 17 16 15 15 14 14 15 15 15 15 15 15 15 14 14 13 13 12 12 12 12 12 12 12 12 12 13 14 15 15 15 16 18 18 16 16 15 14 12 11 11 11 15 23 28
33 33 33 34 35 35 35 34 33 33 32 33 35 37 38 39 38 38 37 37 38 38 38 37 35 34 33 32 31 30 29 29 28 27 26 25 24 23 22 20 18 17 17 16 16 16 16 17 17 17 17 16 16 15 14 14 14 14 14 14 14 14 13 13 13 12 13 14 14 14 14 15 15 14 13 13 11 11 11 12 13 12 13 21 28
34 34 33 34 35 36 35 34 33 32 32 33 35 36 38 38 38 38 37 37 38 38 38 37 36 35 34 33 32 31 31 30 29 28 27 26 25 24 22 21 19 19 18 18 18 18 19 19 19 19 18 17 17 16 16 15 15 15 15 15 15 15 14 13 13 13 13 13 13 13 13 13 11 10 10 10 9 9 10 13 15 15 15 21 27
35 34 34 34 34 34 34 33 32 32 32 33 34 36 37 38 38 37 37 37 38 37 37 37 36 35 34 34 33 33 32 31 30 30 28 27 26 25 23 21 20 20 20 20 21 21 21 22 21 21 20 19 18 18 17 17 17 17 17 17 16 16 15 14 14 14 13 13 14 12 10 9 9 9 9 9 9 10 11 13 15 15 17 21 24
34 34 34 34 33 33 33 32 32 32 32 34 35 35 36 37 38 38 38 38 38 37 37 37 36 36 36 36 35 34 33 33 32 30 28 27 26 25 24 23 22 22 22 22 23 24 24 24 23 23 22 21 21 20 19 19 20 19 18 18 17 17 16 15 15 14 13 13 13 10 8 8 8 8 9 9 8 10 11 12 14 15 16 19 19
35 35 35 34 33 33 33 32 32 32 33 34 35 36 36 37 37 38 38 38 38 38 38 38 37 37 37 37 36 35 35 34 32 30 29 28 27 27 26 25 24 25 25 25 26 26 27 27 26 25 24 23 23 22 21 21 21 20 19 18 18 18 17 16 15 14 13 14 14 11 8 9 8 7 8 8 7 9 10 10 12 12 13 14 16
35 35 35 34 33 33 33 33 32 33 33 34 35 36 36 36 37 38 38 38 38 39 39 39 39 38 38 37 37 37 36 34 32 31 31 30 30 29 28 26 27 28 27 27 28 29 30 29 28 27 26 25 24 23 23 22 22 20 20 19 19 19 18 17 16 14 14 14 14 12 10 9 9 8 7 7 7 9 9 8 9 9 10 11 13
34 34 34 34 34 34 33 33 33 34 34 35 35 35 35 36 37 38 39 39 39 39 39 39 38 38 38 38 38 37 36 34 34 34 34 33 32 31 30 29 30 30 30 30 31 32 32 31 30 29 28 27 26 25 24 23 22 21 20 20 21 20 18 17 17 16 15 15 15 14 11 9 9 9 7 7 9 10 9 9 9 9 10 10 12
33 33 32 32 33 34 34 34 34 35 35 34 34 34 35 37 37 38 38 37 37 38 38 38 38 39 39 39 38 37 37 36 37 38 37 35 34 33 33 32 32 33 33 33 33 33 33 32 32 31 30 29 28 27 26 25 23 23 22 23 23 22 20 19 18 18 17 16 16 16 13 11 11 12 12 11 10 9 9 10 11 12 14 14 17
32 32 31 31 31 33 34 34 34 34 33 33 33 34 35 36 36 36 36 36 36 37 37 38 39 39 39 39 38 38 39 40 40 39 38 37 36 36 36 35 35 35 35 35 35 34 34 33 33 33 32 31 29 28 27 26 24 24 24 24 25 24 23 22 20 21 20 20 20 18 17 16 15 15 15 12 10 10 11 12 14 17 19 20 22
32 32 31 31 31 32 33 33 33 32 32 33 33 34 34 34 34 34 34 34 35 36 37 37 38 38 38 38 39 40 42 42 41 40 39 39 38 39 39 39 37 37 38 37 36 35 35 34 34 34 33 32 30 29 28 26 25 26 26 26 26 25 24 23 21 21 21 20 21 19 17 16 14 13 12 10 10 13 14 15 17 19 20 20 21
33 32 32 32 32 32 33 33 32 32 32 32 33 33 33 33 33 33 33 33 34 35 36 37 37 37 38 39 40 41 42 41 41 40 40 40 39 39 40 40 39 39 39 38 37 37 37 36 36 36 35 34 32 30 28 27 27 27 27 27 27 27 26 24 21 22 21 20 20 18 16 15 14 13 14 16 17 16 15 17 18 17 17 15 13
31 31 32 32 32 31 31 32 31 32 32 32 33 33 32 32 33 33 33 34 35 36 36 36 36 36 37 38 39 40 40 40 39 39 39 40 39 38 39 39 39 39 39 38 38 38 38 38 38 37 36 35 34 31 29 29 30 29 29 29 28 28 28 25 23 23 22 21 19 18 19 20 21 21 22 23 22 19 16 18 18 16 15 13 10
30 31 31 30 30 31 31 31 32 32 32 32 33 32 32 32 32 32 33 33 34 34 33 34 34 35 35 36 37 38 39 39 38 37 37 38 38 37 38 38 38 38 38 38 38 38 39 39 39 39 38 36 35 33 31 31 32 32 31 29 30 30 30 27 25 24 23 22 21 21 23 24 24 24 23 23 23 21 18 18 18 16 15 15 13
30 30 30 30 30 31 31 31 32 32 32 32 32 31 31 30 30 31 31 31 31 31 31 31 32 33 34 34 35 37 38 38 37 36 35 36 36 35 36 37 38 39 39 39 39 39 40 40 40 39 38 37 36 35 33 32 33 34 33 32 32 32 30 26 24 22 22 21 21 22 24 24 24 23 23 24 23 19 17 17 17 17 16 16 15
29 29 29 29 29 30 30 31 31 31 31 30 29 29 29 28 29 29 29 29 29 29 29 29 30 31 31 33 34 35 36 36 36 35 34 35 34 34 35 38 39 38 38 38 39 40 40 41 41 39 38 37 37 36 35 33 32 33 36 36 34 31 28 25 23 20 19 20 21 23 24 24 24 24 25 24 21 17 17 17 17 18 17 17 17
27 28 28 28 28 29 29 30 30 29 29 28 27 27 27 26 27 26 26 26 26 27 28 28 28 29 30 31 32 33 33 33 33 33 33 34 34 34 35 37 37 36 36 37 38 40 41 42 42 40 38 37 36 36 35 32 29 31 35 36 34 30 28 26 23 20 20 22 24 25 26 25 24 25 24 22 19 17 17 17 18 18 19 18 18
26 26 27 27 28 28 28 28 28 27 26 26 25 25 24 24 24 23 23 24 24 26 27 27 27 28 28 29 31 31 31 31 31 32 32 32 33 34 35 35 35 35 36 39 40 41 41 42 42 41 39 38 37 36 34 30 28 29 31 30 29 27 25 25 25 23 23 26 27 27 27 25 25 25 22 19 17 17 17 18 18 19 19 19 19
25 26 26 26 26 26 26 26 25 25 24 23 23 23 23 22 22 22 22 23 24 25 25 25 25 26 27 29 30 29 30 30 30 30 31 31 31 33 34 36 36 36 38 41 41 41 42 43 42 41 40 38 37 35 34 31 29 27 26 26 25 25 24 26 28 27 27 28 27 26 27 27 26 23 19 16 16 17 18 19 19 19 20 20 20
25 25 26 25 25 25 24 23 23 22 22 22 22 22 21 21 21 22 22 23 24 24 24 24 25 26 27 28 29 28 28 28 28 28 29 29 30 31 33 35 36 37 38 40 41 40 40 40 39 38 37 37 35 34 33 32 30 27 26 26 25 26 28 29 30 29 29 28 26 26 28 29 25 21 19 17 17 18 18 19 18 18 20 20 20
25 25 24 24 23 23 22 22 21 20 20 19 19 19 20 21 22 22 23 23 24 24 24 24 24 25 26 28 28 27 26 26 26 26 26 27 29 30 31 33 35 36 37 38 38 36 35 35 35 35 36 35 33 32 32 32 31 29 28 27 27 28 30 31 31 31 29 28 27 29 30 28 24 20 19 19 19 18 18 19 18 18 19 19 20
25 24 23 23 22 21 21 21 20 20 19 19 19 19 19 20 21 22 23 24 24 24 24 24 24 25 26 27 27 25 25 25 26 25 24 25 26 27 28 30 31 33 35 37 37 36 34 33 31 32 33 32 32 32 31 31 30 29 28 28 29 31 32 32 33 33 31 29 30 31 30 25 22 21 20 20 20 18 18 18 18 18 18 18 19
24 23 22 22 21 20 19 19 20 20 20 20 20 21 21 21 22 23 23 23 23 24 24 24 24 24 25 25 24 23 24 24 24 23 22 22 22 23 25 26 27 29 31 32 33 34 34 33 30 27 27 27 27 28 28 27 27 28 28 29 30 32 32 31 31 32 32 31 30 29 26 23 22 21 20 21 21 19 18 19 18 18 18 17 19
22 22 21 21 20 20 19 19 20 20 20 21 21 20 20 20 21 21 21 20 20 20 20 21 22 21 22 22 21 22 23 22 20 19 18 18 18 19 21 21 22 24 25 25 27 30 31 31 29 26 25 25 25 26 26 25 25 26 28 29 30 31 32 31 30 31 31 30 29 27 24 23 23 22 21 22 23 20 19 18 18 18 17 18 19
22 22 22 21 21 21 20 20 19 19 19 20 20 20 19 19 18 18 18 18 18 19 19 20 20 19 20 21 20 21 21 21 19 18 18 18 18 18 19 18 19 19 19 19 22 26 27 27 26 24 24 24 26 27 27 26 25 24 25 27 29 30 31 32 32 31 31 30 28 27 25 24 23 22 22 23 23 21 19 19 18 17 17 18 19
23 23 22 22 21 21 20 20 19 19 18 18 19 19 19 18 18 18 17 17 18 18 19 19 19 19 20 21 20 20 20 19 18 18 18 17 16 16 16 16 16 16 15 16 20 23 23 23 23 22 22 25 28 28 26 24 22 21 22 25 28 29 30 32 32 32 31 30 29 28 27 25 24 23 23 24 23 21 20 19 18 18 18 18 19
24 23 22 21 20 19 19 19 19 18 18 18 17 18 18 18 17 17 17 17 17 17 17 17 18 18 19 19 18 18 17 16 15 15 14 13 13 14 14 15 15 15 14 15 19 21 20 21 22 21 21 23 25 24 22 20 21 21 22 25 27 29 30 31 32 32 32 31 30 29 27 25 24 23 23 23 22 22 20 19 18 18 18 18 19
21 21 21 20 19 18 18 18 18 18 18 18 18 18 18 18 18 16 15 15 15 15 15 15 14 14 14 14 14 14 14 13 13 13 12 12 13 13 14 15 15 15 15 17 20 21 19 19 21 21 19 18 19 18 18 19 21 21 22 24 27 28 29 30 29 30 30 29 29 28 27 25 25 24 23 23 23 22 22 20 19 18 18 19 20
17 18 19 19 19 19 19 18 18 17 17 16 16 16 16 16 15 14 14 14 14 13 13 13 12 13 13 13 12 12 12 12 12 12 12 12 13 13 13 14 14 15 16 19 22 22 20 20 21 21 20 18 17 16 17 18 20 21 22 23 24 25 26 26 26 27 27 27 27 27 26 26 26 24 23 23 23 23 22 21 20 20 20 20 20
16 16 17 17 17 17 17 17 16 16 16 15 15 14 14 13 13 12 12 13 13 12 12 11 12 13 14 14 14 13 12 12 12 13 13 14 13 13 14 15 16 16 18 20 21 21 19 19 21 22 22 21 21 20 19 19 20 21 21 22 23 24 24 24 24 25 25 25 25 26 26 26 25 24 24 23 23 23 23 22 22 22 21 20 20
17 17 16 16 15 15 14 14 14 13 13 13 12 12 11 11 11 11 10 11 11 11 10 9 10 11 12 13 14 15 14 13 12 11 12 13 13 14 17 19 19 18 18 19 20 20 19 19 19 20 20 21 22 23 22 22 22 21 21 22 23 23 23 23 23 23 23 23 24 24 25 25 24 23 23 24 24 24 24 23 22 22 21 20 20
16 16 16 15 14 14 13 13 12 12 11 11 11 11 10 10 9 10 9 9 10 9 9 8 9 10 11 12 13 14 15 16 15 13 12 12 12 14 17 19 19 19 19 18 18 19 19 19 20 19 19 19 20 21 22 22 21 20 20 21 22 22 23 23 22 22 22 22 22 22 23 23 23 22 23 24 25 25 24 24 23 23 22 21 19
14 13 14 14 14 13 13 13 13 12 12 11 10 9 9 9 9 9 9 9 9 8 8 8 8 9 9 10 11 12 13 14 15 16 16 15 15 15 16 16 15 16 18 18 18 18 18 18 19 20 20 19 19 19 19 20 20 20 20 20 21 22 21 21 21 21 21 21 21 21 22 22 22 22 23 24 25 25 24 24 23 23 22 21 19
14 13 13 13 13 12 12 12 12 11 10 9 9 9 9 9 9 9 8 8 8 7 7 8 7 7 7 8 10 11 10 10 11 13 14 15 16 17 17 15 13 12 14 15 15 15 16 16 16 17 18 18 18 18 18 19 19 20 20 20 20 20 20 20 21 20 20 20 20 20 21 21 21 22 22 23 24 25 24 23 23 23 23 22 20
14 14 13 13 13 12 12 11 10 10 9 9 9 9 9 9 8 8 8 7 7 7 7 6 6 6 6 7 8 9 8 8 8 9 10 12 13 15 15 15 13 11 11 11 11 11 11 11 11 12 13 14 14 14 15 16 16 17 17 17 18 18 19 19 19 20 20 20 20 20 20 21 21 21 22 23 24 24 24 23 24 23 23 22 21
14 14 14 13 13 12 11 10 10 9 9 9 9 8 8 7 7 7 7 7 7 6 6 5 5 5 6 6 5 6 7 7 6 7 8 9 11 12 13 13 12 11 10 10 9 9 9 9 9 9 9 10 10 10 11 11 12 13 13 14 15 16 17 17 18 19 19 20 20 20 20 21 21 22 23 23 23 23 23 23 24 24 23 22 20
15 14 14 13 12 11 10 10 10 9 9 8 8 7 7 7 7 7 7 6 6 5 5 5 5 5 5 4 4 4 6 6 6 6 7 8 9 10 11 11 12 12 12 12 11 11 11 11 11 11 11 11 12 12 12 13 13 14 14 15 15 16 17 17 17 18 19 20 20 20 20 21 22 22 23 23 22 23 23 23 23 23 23 22 20
14 13 12 11 11 10 9 9 9 9 8 8 7 7 7 7 7 7 6 6 6 5 5 5 5 5 6 6 6 6 7 6 7 7 8 8 9 10 10 10 11 12 12 13 13 14 14 14 14 15 15 15 15 15 15 15 15 15 16 16 16 16 16 16 16 17 18 18 19 19 19 20 21 22 22 22 22 22 23 23 23 23 22 21 20
12 12 11 11 10 10 9 9 8 8 7 7 8 8 8 7 7 7 6 6 6 5 5 5 6 6 6 7 7 7 7 7 8 8 9 9 10 11 11 11 11 11 12 13 13 13 14 14 14 14 14 14 14 14 14 14 14 14 14 15 15 15 16 16 15 15 15 16 16 17 18 18 19 20 20 21 21 22 22 23 23 22 22 21 20
11 11 11 11 10 10 9 8 8 8 8 9 9 8 8 7 7 6 6 6 5 5 5 6 6 6 7 7 7 7 8 8 8 9 10 11 11 11 11 11 11 11 11 12 12 12 12 12 12 12 11 12 12 13 13 13 13 13 13 14 14 14 14 14 14 14 14 15 16 16 16 16 17 17 18 19 20 21 22 22 22 22 21 21 21
10 10 11 11 10 10 9 9 9 9 9 10 9 9 8 7 7 6 6 5 5 6 6 6 7 7 7 7 7 8 8 8 8 9 10 11 11 11 11 11 11 11 11 11 11 10 10 10 10 10 10 10 11 11 12 12 12 13 13 14 14 14 14 14 14 15 15 16 16 16 16 16 16 16 17 18 19 20 21 21 21 22 21 21 21
10 10 10 10 10 10 10 10 10 10 10 9 9 8 8 7 6 6 6 6 6 6 7 7 8 8 7 7 8 8 8 8 8 9 9 10 11 11 11 11 11 11 11 11 11 10 10 10 10 9 9 9 9 10 10 11 11 12 13 14 14 15 14 15 15 16 16 16 17 16 16 17 17 17 17 18 19 20 21 21 21 22 21 21 21
9 10 9 9 10 11 11 11 11 10 10 9 8 7 7 6 6 6 6 6 7 7 8 8 8 8 7 7 7 7 7 8 8 8 9 10 10 10 11 11 11 11 11 11 11 11 11 10 11 10 10 10 10 10 11 11 11 12 13 13 13 14 14 14 15 16 16 16 17 17 17 17 18 18 18 19 19 20 21 21 22 22 21 21 21
9 10 10 10 10 10 10 10 9 9 8 7 7 7 7 6 6 6 7 7 7 8 8 8 7 7 7 7 7 7 7 8 8 8 9 9 10 10 11 11 11 11 11 11 11 12 12 12 12 12 12 12 12 12 12 12 12 12 13 13 14 14 14 15 15 15 15 16 17 17 17 18 19 19 20 20 20 21 22 22 22 22 21 21 21
10 10 10 10 10 10 9 9 8 7 7 6 6 6 6 6 7 7 7 8 8 8 8 8 7 7 7 7 7 8 8 8 9 9 9 10 11 11 11 11 11 11 12 11 11 12 12 12 12 13 13 13 13 13 12 12 12 13 13 13 13 14 14 14 15 14 15 16 16 17 18 19 19 20 21 21 21 21 22 22 22 22 21 21 21
10 10 10 10 9 9 8 7 7 6 6 6 6 6 7 7 7 8 8 8 8 8 8 8 7 7 8 8 8 9 9 9 10 10 10 11 11 11 12 12 12 11 11 11 11 11 11 12 12 13 13 13 14 14 13 13 13 13 13 13 13 13 14 14 14 14 14 15 16 17 18 19 20 21 21 21 21 21 22 22 22 22 21 21 21
Wind_Direction
201 202 203 204 205 204 202 202 204 206 208 209 210 207 202 198 194 191 190 190 190 190 190 189 189 189 189 189 188 187 187 187 187 187 186 186 186 186 184 184 185 184 179 179 182 185 191 195 197 200 202 210 216 221 228 237 248 256 263 272 272 270 264 246 242 265 284 292 296 301 308 316 326 334 336 339 342 345 350 355 1 7 8 3 0
202 203 204 204 205 205 205 205 206 207 209 209 210 207 202 198 195 193 192 192 192 192 192 191 191 192 191 191 190 189 190 189 190 190 190 190 190 190 189 187 187 188 187 189 190 192 198 202 206 209 210 217 224 230 237 242 249 259 266 269 271 271 268 265 262 269 283 293 298 304 312 320 327 334 337 339 341 344 349 355 360 3 5 1 355
205 205 206 206 205 205 206 206 207 207 209 210 209 207 203 198 196 195 195 194 193 194 194 193 193 193 193 192 191 192 193 193 194 195 195 195 195 195 194 191 192 195 195 197 199 201 205 209 213 216 218 223 229 234 239 243 249 258 265 267 269 273 273 273 271 270 280 290 298 306 314 322 328 332 335 337 340 343 348 353 356 357 359 357 351
206 206 206 206 205 205 205 206 207 208 209 210 209 207 203 199 198 197 196 196 194 194 195 195 196 195 195 195 194 195 196 197 198 199 199 201 201 200 198 196 198 201 203 206 208 211 215 218 220 222 225 229 233 238 240 245 250 255 262 266 267 270 272 274 273 270 276 285 295 304 314 323 327 330 335 336 337 342 346 349 350 350 350 350 348
206 206 205 204 203 204 205 205 207 208 209 210 209 206 203 200 199 198 197 196 195 195 196 197 199 199 198 198 198 198 199 200 201 202 203 205 207 207 205 203 203 205 209 213 215 220 224 226 228 230 232 234 237 241 244 247 251 254 260 266 266 267 269 270 270 269 273 282 293 305 315 323 326 330 335 335 334 337 340 341 343 340 338 343 347
207 206 205 203 203 204 205 206 207 208 210 209 207 205 203 201 200 199 199 198 197 198 198 200 202 202 202 202 202 203 203 204 205 206 207 208 209 210 210 209 210 211 214 216 220 226 229 231 234 236 238 241 242 245 247 248 252 257 262 266 266 266 266 267 268 268 273 282 293 303 312 322 327 329 331 333 332 332 331 331 333 331 331 339 345
206 206 205 203 204 204 205 206 207 208 209 209 207 204 203 202 202 201 201 201 201 201 202 202 204 204 204 204 205 207 207 207 209 210 211 212 212 212 213 213 214 216 219 222 225 229 232 234 237 240 244 246 247 249 250 252 256 260 262 264 264 264 263 264 265 266 274 284 291 299 309 321 325 321 322 329 328 327 332 332 329 328 329 334 339
205 205 204 203 204 205 205 207 208 208 209 208 206 204 203 203 203 203 203 203 204 205 205 205 205 206 206 207 208 210 210 210 212 213 214 216 216 216 216 216 217 220 223 226 229 232 234 236 239 243 246 248 249 251 253 255 258 260 261 262 261 261 261 262 263 265 273 282 286 296 308 316 319 315 317 327 328 328 336 332 324 324 325 328 335
203 202 203 203 204 204 204 206 207 207 207 206 206 205 204 204 205 205 206 206 206 207 208 209 209 208 208 209 210 211 212 214 216 216 217 217 218 219 219 219 222 225 226 229 232 234 236 238 241 243 245 247 248 250 253 256 259 260 261 262 260 260 261 261 262 266 273 277 281 292 302 304 308 312 313 322 325 322 327 326 319 319 321 323 333
200 200 201 202 202 203 203 204 205 206 207 207 207 206 206 206 206 206 208 208 208 209 210 211 211 211 210 210 211 212 213 216 218 220 221 221 222 222 221 223 227 230 231 232 234 236 237 240 241 242 244 245 247 250 253 256 260 261 261 261 260 260 261 260 262 265 268 270 275 283 289 290 296 301 302 308 314 316 323 324 318 321 325 324 330
198 199 201 201 201 202 202 203 205 207 208 208 208 208 208 208 208 208 209 210 210 210 211 212 212 213 214 214 214 214 216 218 219 221 223 225 226 226 225 227 231 232 234 235 237 238 239 240 240 241 242 245 247 249 252 255 258 260 261 262 263 263 261 260 261 262 263 266 271 274 273 280 286 287 291 297 307 314 318 318 316 321 328 326 322
197 198 200 199 200 201 202 202 204 207 209 210 210 210 209 209 209 210 211 211 212 212 212 213 213 214 215 216 217 218 219 220 221 223 224 225 226 227 228 230 234 235 236 237 239 240 240 240 241 241 242 245 247 248 250 253 255 258 261 263 264 265 265 265 263 260 256 259 266 268 265 270 278 280 280 285 301 309 307 306 308 308 314 315 307
197 199 199 198 199 201 202 204 206 208 210 210 210 209 209 210 211 212 212 212 212 212 212 212 214 215 216 218 219 221 222 223 224 225 226 225 226 227 227 231 235 237 238 239 240 241 241 241 242 242 242 244 246 247 249 251 253 255 257 258 259 259 260 261 260 257 256 258 261 261 257 260 269 270 268 278 296 301 295 294 296 291 297 298 292
198 199 199 198 199 200 202 205 207 208 208 208 208 208 210 212 213 213 213 212 211 212 213 213 215 217 219 220 222 223 225 226 227 227 226 226 225 226 228 232 236 238 239 240 242 243 243 243 243 244 244 244 246 248 248 249 250 251 253 255 257 257 254 252 249 245 247 250 252 254 257 261 266 271 275 280 283 283 281 287 288 285 289 289 290
198 200 200 200 199 199 201 203 204 205 206 206 207 209 211 212 212 213 213 214 215 215 216 216 217 219 220 222 224 227 229 229 228 228 227 227 226 227 229 232 236 239 239 240 242 244 245 245 246 246 246 248 250 251 250 250 250 250 251 254 257 258 256 254 249 242 240 242 245 252 262 269 271 274 278 279 275 274 276 279 283 286 289 290 293
199 201 201 201 201 201 202 202 203 203 204 205 207 209 210 211 213 214 215 216 218 219 219 220 220 221 222 224 226 229 231 230 229 229 229 229 228 228 230 232 235 238 239 239 241 243 244 246 246 246 248 249 251 251 251 251 250 250 251 254 257 257 257 257 253 245 242 243 246 253 265 274 273 268 268 269 273 281 282 279 281 284 286 291 293
200 200 201 202 203 203 203 202 202 202 203 205 207 209 211 213 214 216 216 217 218 221 222 223 224 225 225 226 228 230 231 231 231 231 230 229 228 227 229 232 234 237 239 239 241 243 244 246 247 247 247 248 249 249 250 250 250 250 252 255 256 256 257 258 251 242 241 242 245 253 262 262 253 247 256 268 277 283 281 275 279 281 282 289 292
200 200 201 202 202 202 203 203 203 203 204 207 209 210 212 214 216 217 218 219 221 223 224 225 226 228 229 231 232 233 233 233 232 231 230 230 229 229 231 233 235 238 239 239 241 243 244 246 247 247 247 248 250 249 247 250 252 251 252 254 253 254 258 258 249 241 241 240 240 245 247 245 246 250 260 271 278 279 273 271 278 279 275 279 282
199 199 201 202 203 204 205 206 206 207 208 210 211 212 214 215 218 219 220 222 223 225 226 228 230 232 234 235 236 237 238 237 235 234 232 232 231 231 233 235 237 239 240 241 242 243 244 246 247 248 249 249 250 249 246 247 251 254 254 251 250 255 260 259 252 246 241 238 238 239 240 246 255 259 263 272 276 275 272 274 276 273 267 271 278
200 201 203 204 204 206 207 207 208 210 211 213 213 214 216 217 218 219 221 222 224 227 229 231 234 235 237 238 239 240 242 241 240 238 236 236 235 234 235 237 238 241 242 242 243 244 245 246 247 248 250 250 251 251 248 245 249 254 253 248 249 258 264 262 257 250 243 239 240 242 243 249 256 258 265 275 276 273 276 276 272 267 264 268 274
201 201 202 203 204 206 207 209 211 212 213 214 214 215 217 218 219 220 222 223 224 227 230 233 235 238 240 241 242 244 245 245 244 242 240 240 239 236 237 239 241 242 243 244 245 246 247 249 250 250 250 251 252 253 252 247 245 248 250 251 255 261 264 261 256 249 244 243 243 243 244 246 250 257 270 278 276 276 279 274 267 264 263 265 270
198 199 201 202 204 206 208 210 212 212 213 214 214 215 216 218 220 221 222 224 225 228 231 233 236 239 241 243 245 246 247 248 248 247 244 243 242 239 239 242 244 244 245 246 247 248 250 252 254 254 253 253 253 254 255 251 244 241 247 253 257 258 257 257 255 247 242 243 243 243 242 242 247 259 273 281 281 281 279 271 264 263 261 263 269
196 197 199 201 203 206 207 209 210 211 212 213 213 214 214 215 218 220 222 224 226 228 231 233 236 239 242 245 247 248 249 249 249 250 248 246 245 243 242 243 245 246 247 248 250 251 254 255 256 257 257 256 254 253 253 251 246 242 245 249 251 252 250 250 249 244 240 240 241 242 241 242 248 260 274 285 285 279 273 267 262 262 262 264 268
192 194 197 198 201 203 205 206 207 208 210 210 210 211 211 212 216 219 222 224 225 227 230 232 234 239 243 247 249 250 251 252 252 252 252 250 248 246 246 246 246 247 250 252 253 253 256 257 258 259 259 259 258 256 254 252 249 246 244 242 243 244 243 242 243 241 238 238 237 237 240 245 251 260 275 286 283 273 267 263 261 261 263 264 267
187 190 193 195 197 198 199 201 203 205 207 207 207 208 209 211 214 217 219 222 223 226 230 232 235 239 244 248 252 254 254 255 255 255 255 254 252 251 250 249 248 247 250 254 257 257 258 260 261 262 262 261 261 259 256 254 251 247 243 242 241 240 240 241 242 240 237 236 234 235 243 250 255 263 276 284 280 272 267 264 262 262 263 265 267
182 185 187 189 191 192 193 194 198 201 204 207 210 212 213 213 214 216 218 220 224 227 230 232 235 239 244 249 253 256 256 258 259 259 257 256 255 254 253 252 251 250 250 253 257 261 263 264 264 263 263 262 259 256 254 254 253 249 244 241 240 240 240 241 241 240 237 235 237 241 247 252 257 263 273 280 279 274 270 266 264 264 265 266 269
177 179 182 184 185 187 189 190 193 197 201 205 209 213 216 217 216 217 219 220 222 225 228 231 234 238 244 250 254 257 258 259 259 260 259 258 259 259 257 256 254 252 252 253 255 258 261 263 263 262 262 261 259 256 255 254 252 249 245 240 238 239 241 242 243 244 242 239 241 246 249 251 256 264 272 279 280 276 269 266 265 265 267 267 268
173 175 177 180 181 184 187 189 191 195 199 203 207 209 213 216 218 221 223 223 224 226 228 232 236 240 246 252 254 256 257 258 261 265 267 266 266 264 262 261 259 257 257 259 261 261 260 259 259 258 255 253 251 249 247 245 243 243 245 243 239 237 240 243 245 245 244 242 243 245 246 249 257 267 275 279 278 274 268 265 265 266 267 265 264
171 171 173 177 179 181 185 189 193 196 198 202 207 210 214 219 222 227 231 233 235 237 238 241 246 250 253 255 256 256 259 266 273 277 276 272 269 266 264 264 264 264 264 265 267 266 262 258 256 253 248 244 241 239 238 238 239 240 242 242 239 236 238 241 244 245 244 243 241 242 247 253 261 268 275 277 276 273 267 265 266 266 265 263 261
167 169 172 176 178 181 185 188 192 196 199 202 206 209 215 221 226 231 236 239 241 244 246 250 254 257 257 259 261 262 268 276 281 281 278 276 274 272 271 270 269 269 270 268 264 262 259 257 255 251 246 242 240 238 237 238 239 238 236 235 236 237 239 241 243 246 246 244 242 245 251 257 262 269 274 275 273 270 266 265 266 265 264 262 261
165 170 174 176 178 181 184 186 190 195 199 202 206 208 212 219 225 229 233 236 239 242 245 250 255 258 260 264 267 268 271 275 277 278 279 278 276 273 270 268 266 265 265 264 260 256 253 253 253 249 245 242 241 241 241 241 240 236 233 234 236 237 238 241 244 246 246 245 246 250 254 257 263 270 274 273 271 268 266 264 264 264 264 263 263
167 171 174 176 178 181 183 186 189 193 196 200 205 208 211 215 220 226 231 235 239 243 246 249 252 256 261 265 268 270 272 273 274 276 273 266 261 259 256 253 253 252 251 250 251 252 250 249 251 250 247 245 245 245 244 243 241 236 234 237 238 238 240 243 245 246 246 247 249 251 254 258 264 270 272 270 267 265 263 261 261 263 264 263 264
172 171 172 174 176 180 184 187 190 193 196 198 201 205 209 213 217 221 225 230 236 241 243 247 250 253 255 257 260 265 271 274 275 275 267 256 252 251 250 248 246 244 241 240 243 247 247 246 249 251 251 250 250 249 245 244 243 242 241 242 244 245 247 248 247 247 249 250 252 253 255 258 262 265 267 266 263 261 260 260 260 261 260 262 265
175 174 175 177 179 182 186 188 190 193 196 198 201 205 209 215 219 219 216 218 225 231 236 240 244 245 246 247 250 254 259 262 266 267 262 253 247 246 248 248 245 242 239 239 242 246 246 245 246 248 251 252 252 250 247 247 247 246 245 247 248 251 252 252 250 251 253 254 254 254 255 257 258 259 262 263 259 257 257 256 256 257 257 259 263
178 179 181 183 184 186 187 189 190 193 195 198 203 206 209 214 219 220 218 220 225 230 234 237 241 244 246 248 249 248 249 250 252 254 253 250 247 246 246 244 241 238 237 239 242 246 248 248 247 246 246 248 250 251 251 252 252 251 251 252 253 253 253 253 253 255 256 255 255 255 255 255 255 257 260 260 256 254 254 255 255 256 256 258 263
180 180 180 182 185 185 185 187 189 192 195 197 200 204 208 212 217 223 227 230 233 236 239 239 240 244 248 252 251 248 245 245 246 249 250 250 248 246 245 243 239 235 235 237 240 245 251 255 256 254 249 246 247 250 253 255 256 257 258 259 258 256 256 257 257 256 256 255 256 257 256 254 253 256 258 256 254 253 254 255 255 256 256 257 261
180 179 178 177 179 179 180 182 184 187 191 194 196 201 206 211 217 224 228 232 236 241 243 243 243 243 247 253 254 249 245 244 243 241 241 241 240 239 243 246 244 238 235 235 237 242 249 254 257 261 262 257 253 254 256 258 260 262 263 262 260 258 259 259 258 257 256 257 258 259 258 255 255 256 257 256 254 253 253 254 254 254 255 256 257
174 174 173 173 175 177 178 180 183 186 189 192 197 202 207 212 218 224 227 232 237 242 245 248 250 248 246 249 254 254 250 247 245 242 238 236 235 235 239 247 249 242 237 235 236 241 246 249 251 257 263 265 263 261 260 261 263 263 262 261 259 259 258 258 258 257 257 256 258 260 259 256 256 258 259 258 255 254 254 254 253 253 254 252 252
166 167 170 172 174 177 179 181 184 186 189 193 198 204 209 213 217 221 227 232 237 242 246 249 253 255 249 243 247 254 256 251 248 245 240 236 235 236 239 246 250 243 235 233 234 236 239 242 245 247 251 254 256 256 256 257 259 259 258 258 258 257 256 255 255 256 255 255 258 259 258 257 260 262 262 260 258 257 256 255 254 253 252 252 254
168 169 171 174 176 177 178 180 182 184 188 193 198 202 207 212 216 220 226 231 235 240 246 249 249 250 247 242 242 251 258 255 249 245 240 235 234 235 238 242 245 241 232 229 227 228 231 235 239 242 244 246 249 251 252 253 255 255 256 256 256 256 256 256 256 256 257 258 258 258 258 261 264 265 263 261 260 259 256 255 255 253 252 254 258
172 171 171 173 174 174 173 174 176 180 184 189 194 199 203 207 212 217 222 226 228 230 236 238 235 236 241 244 246 252 258 257 251 247 244 240 239 239 239 240 241 241 238 236 235 235 236 240 243 246 248 250 252 255 256 257 257 257 257 256 256 257 257 257 258 259 259 259 258 258 260 264 266 266 265 264 263 259 256 254 254 253 253 255 257
171 169 167 167 167 167 167 169 171 175 179 183 188 194 199 203 207 210 212 214 216 216 216 219 224 227 226 219 216 229 240 244 244 244 245 244 244 245 244 243 245 246 247 249 251 251 252 256 259 261 263 265 266 267 266 265 264 262 260 259 258 258 259 259 259 260 259 259 259 260 264 267 267 266 266 265 261 258 256 255 253 253 253 254 255
165 162 160 159 161 162 164 167 168 172 177 183 188 193 197 199 199 200 201 201 202 204 206 209 215 219 217 215 218 225 230 232 235 240 245 246 248 250 250 250 251 253 254 256 259 261 262 264 265 267 269 270 269 269 269 267 265 263 261 259 258 257 258 258 258 258 259 261 264 266 268 269 268 267 265 263 260 257 256 255 255 254 253 254 255
160 157 156 157 159 162 164 167 170 174 178 182 186 188 188 189 188 189 191 192 192 196 202 207 212 216 219 224 230 232 231 231 234 238 243 247 250 254 257 258 259 260 262 263 265 265 265 266 265 266 267 267 266 266 265 263 262 260 259 258 256 256 257 258 258 260 263 265 267 269 269 269 269 268 265 263 260 257 256 255 254 254 254 254 255
159 158 159 160 162 163 165 167 171 175 177 178 178 175 175 179 181 180 182 186 189 192 199 205 211 216 220 225 230 232 233 235 238 241 246 251 255 259 263 266 268 269 269 270 271 270 270 269 268 267 266 264 263 263 261 260 259 259 258 257 258 259 260 260 260 260 261 262 263 265 267 268 268 267 266 264 261 258 256 257 256 255 254 254 255
159 160 161 162 162 163 164 166 169 172 173 173 172 169 168 171 174 176 180 186 189 195 201 207 212 217 221 225 230 235 238 242 244 247 251 254 257 261 265 267 270 272 273 275 275 275 274 273 272 271 268 265 263 262 261 259 260 261 260 261 262 263 264 263 261 260 259 260 261 262 263 264 265 265 264 264 262 259 258 258 257 257 257 257 258
157 157 157 159 160 160 162 165 168 169 169 168 166 164 164 167 171 177 183 188 195 202 208 213 217 221 225 230 235 240 245 248 250 252 253 255 257 261 264 266 269 272 275 278 279 280 281 280 278 278 277 273 269 267 265 264 264 264 264 264 265 266 266 264 262 261 260 259 259 259 259 260 261 261 261 261 260 259 259 259 259 260 260 261 261
151 150 150 155 158 160 163 165 166 166 164 161 159 160 163 169 176 183 189 196 203 209 213 218 223 228 233 238 243 246 249 251 252 253 254 256 258 260 263 266 269 271 273 276 278 280 281 282 282 282 282 280 278 276 273 272 270 268 267 266 266 265 264 262 260 260 259 257 257 257 257 257 258 259 259 259 258 259 259 260 262 262 263 264 265
140 143 146 151 154 156 159 160 161 160 157 155 158 163 169 177 185 191 198 205 210 215 220 225 230 234 238 242 246 250 252 254 257 258 259 260 262 263 264 266 268 269 271 274 276 279 281 283 284 285 285 284 284 282 280 278 276 273 271 270 269 267 266 264 262 261 259 257 256 256 257 257 258 258 258 258 259 260 260 261 263 263 263 263 266
134 137 142 147 150 152 154 155 155 154 154 158 166 175 182 191 199 204 209 215 217 221 225 229 232 238 242 245 248 251 253 256 258 260 262 263 264 265 267 268 269 270 273 274 275 278 280 282 283 285 285 285 285 285 284 282 279 276 274 272 271 271 270 269 268 266 263 261 260 258 258 257 257 258 259 259 259 260 261 261 262 263 263 263 264
137 141 146 149 151 153 155 155 156 159 166 175 185 193 199 206 211 215 219 222 224 226 229 232 236 240 243 246 249 252 254 258 260 262 264 266 267 268 270 272 273 274 275 276 276 277 278 279 279 280 282 283 284 285 284 283 281 280 279 276 274 273 272 271 270 268 264 262 261 260 259 259 258 258 259 260 260 261 262 264 263 264 264 264 264